When you browse on this site, cookies collect data to enhance your experience and personalize the content and advertising you see.
Visit our Privacy Policy to learn more. By continuing to use the site, you agree to this use of cookies and data.
  • în România
  • Lista ţărilor
  • Pe 7 zile
  • Temperatura apei
  • Meteo pe hartă
  • Widget-uri
  • user-avatar
    Intrare

    Meteo pe oră la Satif

    Astăzi, 6 Decembrie, Vineri

    Timp Temperatura Precipitaţii Vânt Presiune Umiditate
    00:00 +8°C° 0 mm 1 m/s 674 mmHg 76%
    01:00 +8°C° 0 mm 1 m/s 674 mmHg 76%
    02:00 +8°C° 0 mm 1 m/s 673 mmHg 76%
    03:00 +8°C° 0 mm 1 m/s 673 mmHg 76%
    04:00 +7°C° 0 mm 1 m/s 673 mmHg 77%
    05:00 +7°C° 0 mm 1 m/s 673 mmHg 78%
    06:00 +7°C° 0 mm 1 m/s 674 mmHg 79%
    07:00 +8°C° 0 mm 1 m/s 674 mmHg 73%
    08:00 +9°C° 0 mm 1 m/s 675 mmHg 68%
    09:00 +11°C° 0 mm 1 m/s 675 mmHg 62%
    10:00 +12°C° 0 mm 2 m/s 675 mmHg 57%
    11:00 +12°C° 0 mm 2 m/s 675 mmHg 52%
    12:00 +12°C° 0 mm 3 m/s 676 mmHg 47%
    13:00 +12°C° 0 mm 3 m/s 675 mmHg 47%
    14:00 +12°C° 0 mm 3 m/s 675 mmHg 47%
    15:00 +12°C° 0 mm 3 m/s 674 mmHg 47%
    16:00 +12°C° 0 mm 2 m/s 674 mmHg 53%
    17:00 +10°C° 0 mm 1 m/s 674 mmHg 59%
    18:00 +9°C° 0 mm 1 m/s 674 mmHg 65%
    19:00 +8°C° 0 mm 1 m/s 674 mmHg 67%
    20:00 +7°C° 0 mm 0 m/s 674 mmHg 68%
    21:00 +6°C° 0 mm 0 m/s 674 mmHg 69%
    22:00 +6°C° 0 mm 0 m/s 674 mmHg 68%
    23:00 +7°C° 0 mm 1 m/s 674 mmHg 67%

    Mâine, 7 Decembrie, Sâmbătă

    Timp Temperatura Precipitaţii Vânt Presiune Umiditate
    00:00 +7°C° 0 mm 1 m/s 674 mmHg 66%
    01:00 +7°C° 0 mm 1 m/s 673 mmHg 66%
    02:00 +7°C° 0 mm 1 m/s 673 mmHg 65%
    03:00 +6°C° 0 mm 1 m/s 673 mmHg 65%
    04:00 +5°C° 0 mm 0 m/s 673 mmHg 64%
    05:00 +5°C° 0 mm 0 m/s 673 mmHg 63%
    06:00 +5°C° 0 mm 0 m/s 673 mmHg 63%
    07:00 +7°C° 0 mm 0 m/s 673 mmHg 57%
    08:00 +10°C° 0 mm 1 m/s 674 mmHg 51%
    09:00 +12°C° 0 mm 1 m/s 675 mmHg 45%
    10:00 +13°C° 0 mm 1 m/s 675 mmHg 41%
    11:00 +14°C° 0 mm 1 m/s 675 mmHg 38%
    12:00 +15°C° 0 mm 1 m/s 675 mmHg 35%
    13:00 +15°C° 0 mm 1 m/s 675 mmHg 36%
    14:00 +15°C° 0 mm 1 m/s 675 mmHg 36%
    15:00 +15°C° 0 mm 2 m/s 674 mmHg 37%
    16:00 +13°C° 0 mm 2 m/s 674 mmHg 43%
    17:00 +12°C° 0 mm 1 m/s 674 mmHg 49%
    18:00 +11°C° 0 mm 1 m/s 674 mmHg 54%
    19:00 +10°C° 0 mm 1 m/s 674 mmHg 57%
    20:00 +10°C° 0 mm 1 m/s 674 mmHg 60%
    21:00 +9°C° 0 mm 1 m/s 674 mmHg 62%
    22:00 +9°C° 0 mm 1 m/s 674 mmHg 65%
    23:00 +8°C° 0 mm 1 m/s 674 mmHg 67%

    Poimâine, 8 Decembrie, Duminică

    Timp Temperatura Precipitaţii Vânt Presiune Umiditate
    00:00 +8°C° 0 mm 1 m/s 674 mmHg 69%
    01:00 +8°C° 0 mm 1 m/s 674 mmHg 71%
    02:00 +7°C° 0 mm 1 m/s 674 mmHg 72%
    03:00 +7°C° 0 mm 1 m/s 674 mmHg 74%
    04:00 +6°C° 0 mm 1 m/s 674 mmHg 75%
    05:00 +6°C° 0 mm 1 m/s 674 mmHg 75%
    06:00 +6°C° 0 mm 1 m/s 674 mmHg 76%
    07:00 +7°C° 0 mm 1 m/s 675 mmHg 71%
    08:00 +9°C° 0 mm 1 m/s 676 mmHg 66%
    09:00 +10°C° 0 mm 1 m/s 677 mmHg 61%
    10:00 +11°C° 0 mm 1 m/s 677 mmHg 57%
    11:00 +12°C° 0 mm 1 m/s 677 mmHg 54%
    12:00 +12°C° 0 mm 1 m/s 677 mmHg 50%
    13:00 +13°C° 0 mm 2 m/s 677 mmHg 50%
    14:00 +13°C° 0 mm 2 m/s 676 mmHg 50%
    15:00 +13°C° 0 mm 2 m/s 676 mmHg 49%
    16:00 +10°C° 0 mm 2 m/s 676 mmHg 57%
    17:00 +10°C° 0 mm 1 m/s 676 mmHg 64%
    18:00 +9°C° 0 mm 1 m/s 676 mmHg 72%
    19:00 +8°C° 0 mm 1 m/s 676 mmHg 73%
    20:00 +8°C° 0 mm 1 m/s 676 mmHg 74%
    21:00 +8°C° 0 mm 1 m/s 676 mmHg 75%
    22:00 +7°C° 0 mm 1 m/s 676 mmHg 76%
    23:00 +7°C° 0 mm 1 m/s 676 mmHg 76%

    9 Decembrie, Luni

    Timp Temperatura Precipitaţii Vânt Presiune Umiditate
    00:00 +7°C° 0 mm 1 m/s 676 mmHg 77%
    01:00 +7°C° 0 mm 1 m/s 675 mmHg 78%
    02:00 +6°C° 0 mm 1 m/s 675 mmHg 78%
    03:00 +6°C° 0 mm 1 m/s 675 mmHg 78%
    04:00 +6°C° 0 mm 1 m/s 675 mmHg 78%
    05:00 +6°C° 0 mm 1 m/s 675 mmHg 78%
    06:00 +5°C° 0 mm 1 m/s 675 mmHg 78%
    07:00 +7°C° 0 mm 1 m/s 675 mmHg 71%
    08:00 +9°C° 0 mm 1 m/s 676 mmHg 64%
    09:00 +9°C° 0 mm 2 m/s 677 mmHg 56%
    10:00 +10°C° 0 mm 2 m/s 677 mmHg 54%
    11:00 +12°C° 0 mm 2 m/s 677 mmHg 51%
    12:00 +13°C° 0 mm 2 m/s 676 mmHg 49%
    13:00 +12°C° 0 mm 3 m/s 676 mmHg 51%
    14:00 +12°C° 0 mm 3 m/s 676 mmHg 52%
    15:00 +12°C° 0 mm 3 m/s 676 mmHg 54%
    16:00 +10°C° 0 mm 2 m/s 675 mmHg 60%
    17:00 +9°C° 0 mm 2 m/s 675 mmHg 66%
    18:00 +9°C° 0 mm 1 m/s 675 mmHg 71%
    19:00 +8°C° 0 mm 2 m/s 675 mmHg 72%
    20:00 +8°C° 0 mm 2 m/s 675 mmHg 73%
    21:00 +7°C° 0 mm 2 m/s 675 mmHg 74%
    22:00 +7°C° 0 mm 2 m/s 675 mmHg 72%
    23:00 +7°C° 0 mm 2 m/s 675 mmHg 70%

    10 Decembrie, Marţi

    Timp Temperatura Precipitaţii Vânt Presiune Umiditate
    00:00 +6°C° 0 mm 2 m/s 675 mmHg 68%
    01:00 +6°C° 0 mm 2 m/s 674 mmHg 67%
    02:00 +5°C° 0 mm 2 m/s 674 mmHg 66%
    03:00 +5°C° 0 mm 2 m/s 674 mmHg 66%
    04:00 +5°C° 0 mm 2 m/s 674 mmHg 67%
    05:00 +4°C° 0 mm 2 m/s 674 mmHg 69%
    06:00 +4°C° 0 mm 2 m/s 674 mmHg 71%
    07:00 +4°C° 0 mm 3 m/s 674 mmHg 70%
    08:00 +7°C° 0 mm 3 m/s 675 mmHg 70%
    09:00 +7°C° 0 mm 4 m/s 675 mmHg 69%
    10:00 +7°C° 0 mm 5 m/s 675 mmHg 66%
    11:00 +8°C° 0 mm 5 m/s 675 mmHg 62%
    12:00 +9°C° 0 mm 6 m/s 675 mmHg 59%
    13:00 +8°C° 0 mm 6 m/s 675 mmHg 61%
    14:00 +8°C° 0 mm 6 m/s 674 mmHg 62%
    15:00 +8°C° 0 mm 6 m/s 674 mmHg 64%
    16:00 +7°C° 0 mm 5 m/s 674 mmHg 71%
    17:00 +6°C° 0 mm 4 m/s 674 mmHg 79%
    18:00 +5°C° 0 mm 3 m/s 674 mmHg 86%
    19:00 +5°C° 0 mm 2 m/s 674 mmHg 88%
    20:00 +5°C° 0 mm 2 m/s 675 mmHg 90%
    21:00 +5°C° 0 mm 2 m/s 675 mmHg 92%
    22:00 +4°C° 0 mm 2 m/s 675 mmHg 93%
    23:00 +4°C° 0 mm 2 m/s 675 mmHg 93%

    11 Decembrie, Miercuri

    Timp Temperatura Precipitaţii Vânt Presiune Umiditate
    00:00 +4°C° 0 mm 1 m/s 675 mmHg 93%
    01:00 +4°C° 0 mm 1 m/s 674 mmHg 92%
    02:00 +4°C° 0 mm 1 m/s 674 mmHg 90%
    03:00 +3°C° 0 mm 1 m/s 674 mmHg 89%
    04:00 +3°C° 0 mm 1 m/s 674 mmHg 87%
    05:00 +3°C° 0 mm 1 m/s 674 mmHg 84%
    06:00 +3°C° 0 mm 1 m/s 674 mmHg 82%
    07:00 +4°C° 0 mm 1 m/s 675 mmHg 73%
    08:00 +6°C° 0 mm 1 m/s 675 mmHg 63%
    09:00 +8°C° 0 mm 1 m/s 676 mmHg 54%
    10:00 +10°C° 0 mm 1 m/s 676 mmHg 45%
    11:00 +11°C° 0 mm 1 m/s 676 mmHg 36%
    12:00 +13°C° 0 mm 1 m/s 676 mmHg 28%
    13:00 +13°C° 0 mm 1 m/s 675 mmHg 29%
    14:00 +14°C° 0 mm 1 m/s 675 mmHg 30%
    15:00 +14°C° 0 mm 1 m/s 675 mmHg 31%
    16:00 +12°C° 0 mm 1 m/s 674 mmHg 37%
    17:00 +10°C° 0 mm 1 m/s 674 mmHg 42%
    18:00 +9°C° 0 mm 1 m/s 673 mmHg 48%
    19:00 +8°C° 0 mm 1 m/s 673 mmHg 48%
    20:00 +8°C° 0 mm 1 m/s 673 mmHg 47%
    21:00 +8°C° 0 mm 1 m/s 673 mmHg 47%
    22:00 +7°C° 0 mm 2 m/s 673 mmHg 48%
    23:00 +6°C° 0 mm 2 m/s 673 mmHg 48%
    Arată mai mult